Погода в Кумкёе

Турция     36°52′48″N   30°57′10″E
темп.,
°C
ветер,
м/с
пор.,
м/с
влажн.,
%
обл.,
%
осадки,
мм/ч
давл.,
гПа
погр.,
м
26 февраля, пт
пт2600:00+9с34600 0.0 102871
03:00+8с35620 0.0 102779
06:00+8с45630 0.0 102787
09:00+10с36610 0.0 1026213
12:00+18ссз23360 0.0 1025748
15:00+20ю33350 0.0 1022836
18:00+14юв23610 0.0 102281
21:00+10ссв22610 0.0 102223
27 февраля, сб
сб2700:00+9ссв22570 0.0 102223
03:00+9с22580 0.0 102122
06:00+8с23580 0.0 102023
09:00+11с22570 0.0 102084
12:00+17ю21420 0.0 1019584
15:00+17ююв33430 0.0 1016672
18:00+14ююв23610 0.0 101678
21:00+10ссв22700 0.0 101622
28 февраля, вс
вс2800:00+9с22690 0.0 101723
03:00+9с22700 0.0 101622
06:00+8с22690 0.0 101522
09:00+12с11590 0.0 101650
12:00+17ю22460 0.0 1016626
15:00+17ю43510 0.0 1015789
18:00+15ю22720 0.0 1015128
21:00+11ссв22850 0.0 101722
1 марта, пн
пн100:00+10с22804 0.0 101824
03:00+10с336838 0.0 101957
06:00+10с466291 0.0 1019142
09:00+11с475789 0.0 1020400
12:00+15с454187 0.0 10201064
15:00+17с453655 0.0 10181396
18:00+14с47470 0.0 1018281
21:00+8с34600 0.0 101975
2 марта, вт
вт200:00+7ссз35600 0.0 102077
03:00+6ссз35590 0.0 102084
06:00+6ссз45580 0.0 102094
09:00+9ссз235549 0.0 1021212
12:00+12ссз3541100 0.1 10211314
15:00+14ссв453297 0.1 10191986
18:00+12ссв364528 0.0 1019426
21:00+8с455843 0.0 1020115